map of SKG home
Great Circle Mapper logo
SKG - Airport
Location
City:  Thessaloniki, Greece
Near (Alt.):Saloniki
Name:Makedonia
ICAO / IATA:LGTS / SKG

Details
Type:Airport (Aerodrome, Airfield)
Use:Public/Civil, International (customs port of entry)
Latitude:4031'11"N (40.519725)
Longitude:2258'15"E (22.970950)
Datum:WGS 1984
Elevation:22 ft (7 m)
Runways:2
Longest:8005 × 164 ft (2440 × 50 m), paved

Time
Time Zone:UTC+2 (DST+3)
Local Time:

Weather
METAR:LGTS 200120Z 11005KT CAVOK 17/15 Q1021 NOSIG
TAF:LGTS 192300Z 2000/2024 VRB03KT CAVOK PROB30
TEMPO 2004/2007 7000 FEW010
BECMG 2012/2014 19012KT 9999 FEW030
BECMG 2018/2012 VRB03KT

Related Locations
Nearby:
Farthest:CHT: 11420 mi / 18379 km
Waitangi [Tuuta], Chatham Islands, NZ

Find:

   beyond  
but within

Other Information
Maps:
NOTAMs:
Links:
Sources:

  
flag of Greece   

Airport Diagram

Airport diagram for SKG

Airport diagram (OBSOLETE) from NGA

Sectional Chart

Flight Planning
at skyvector.com

Satellite Image

Google Maps Satellite View

 

Copyright © 2004-2014 Karl L. Swartz. All rights reserved.
The Great Circle Mapper name and logo are trademarks of the Great Circle Mapper.
All other trademarks mentioned herein belong to their respective owners.
Please see credits for attibutions and further copyright information.

  Follow gcmap on Facebook Follow gcmap on Twitter

hCard Microformat

Geo Microformat